| time (UTC) | temp F | wind direction | speed MPH | gust MPH | rain 1hr in | rain 24hr in | rain mn in | humidity % | barometer mb |
| 20260831092001 | 79 | 133 | 1.0 | 3.0 | 0.00 | 0.00 | 0.00 | 75 | 1014.4 |
| 20260831091506 | 78 | 151 | 0.0 | 3.0 | 0.00 | 0.00 | 0.00 | 74 | 1014.2 |
| 20260831091101 | 79 | 129 | 1.0 | 3.0 | 0.00 | 0.00 | 0.00 | 74 | 1014.5 |
| 20260831090201 | 79 | 184 | 0.0 | 2.0 | 0.00 | 0.00 | 0.00 | 74 | 1014.5 |
| 20260831090007 | 79 | 187 | 0.0 | 2.0 | 0.00 | 0.00 | 0.00 | 74 | 1014.3 |
| 20260831085301 | 79 | 161 | 0.0 | 2.0 | 0.00 | 0.00 | 0.00 | 73 | 1014.5 |
| 20260831084503 | 79 | 134 | 0.0 | 1.0 | 0.00 | 0.00 | 0.00 | 73 | 1014.2 |
| 20260831084401 | 80 | 122 | 0.0 | 1.0 | 0.00 | 0.00 | 0.00 | 73 | 1014.5 |
| 20260831083501 | 80 | 136 | 0.0 | 2.0 | 0.00 | 0.00 | 0.00 | 73 | 1014.4 |
| 20260831083104 | 79 | 122 | 0.0 | 3.0 | 0.00 | 0.00 | 0.00 | 73 | 1014.1 |
| 20260831082601 | 80 | 150 | 0.0 | 3.0 | 0.00 | 0.00 | 0.00 | 72 | 1014.3 |
| 20260831081701 | 80 | 143 | 1.0 | 2.0 | 0.00 | 0.00 | 0.00 | 72 | 1014.3 |
| 20260831081607 | 80 | 138 | 0.0 | 3.0 | 0.00 | 0.00 | 0.00 | 72 | 1014.1 |
| 20260831080801 | 80 | 125 | 1.0 | 3.0 | 0.00 | 0.00 | 0.00 | 72 | 1014.3 |
| 20260831080003 | 80 | 124 | 0.0 | 5.0 | 0.00 | 0.00 | 0.00 | 72 | 1014.1 |
| 20260831075001 | 80 | 126 | 2.0 | 4.0 | 0.00 | 0.00 | 0.00 | 72 | 1014.4 |
| 20260831074605 | 80 | 141 | 1.0 | 4.0 | 0.00 | 0.00 | 0.00 | 72 | 1014.1 |
| 20260831074101 | 80 | 137 | 1.0 | 4.0 | 0.00 | 0.00 | 0.00 | 72 | 1014.4 |
| 20260831073201 | 80 | 121 | 1.0 | 4.0 | 0.00 | 0.00 | 0.00 | 72 | 1014.4 |
| 20260831073013 | 80 | 131 | 0.0 | 4.0 | 0.00 | 0.00 | 0.00 | 72 | 1014.1 |
| 20260831072301 | 81 | 111 | 1.0 | 4.0 | 0.00 | 0.00 | 0.00 | 72 | 1014.4 |
| 20260831071503 | 80 | 86 | 1.0 | 4.0 | 0.00 | 0.00 | 0.00 | 72 | 1014.1 |
| 20260831071401 | 81 | 110 | 1.0 | 5.0 | 0.00 | 0.00 | 0.00 | 72 | 1014.4 |
| 20260831070021 | 81 | 126 | 1.0 | 5.0 | 0.00 | 0.00 | 0.00 | 71 | 1014.2 |
| 20260831065601 | 81 | 134 | 1.0 | 4.0 | 0.00 | 0.00 | 0.00 | 71 | 1014.4 |
| 20260831064701 | 82 | 118 | 1.0 | 5.0 | 0.00 | 0.00 | 0.00 | 70 | 1014.4 |
| 20260831064504 | 81 | 109 | 0.0 | 5.0 | 0.00 | 0.00 | 0.00 | 70 | 1014.2 |
| 20260831063008 | 82 | 137 | 0.0 | 3.0 | 0.00 | 0.00 | 0.00 | 69 | 1014.2 |
| 20260831062901 | 82 | 126 | 1.0 | 3.0 | 0.00 | 0.00 | 0.00 | 69 | 1014.5 |
| 20260831062001 | 82 | 129 | 1.0 | 6.0 | 0.00 | 0.00 | 0.00 | 69 | 1014.6 |
| 20260831061610 | 82 | 79 | 1.0 | 6.0 | 0.00 | 0.00 | 0.00 | 69 | 1014.3 |
| 20260831061101 | 82 | 127 | 2.0 | 6.0 | 0.00 | 0.00 | 0.00 | 68 | 1014.6 |
| 20260831060201 | 82 | 128 | 2.0 | 6.0 | 0.00 | 0.00 | 0.00 | 68 | 1014.6 |
| 20260831060112 | 82 | 123 | 2.0 | 6.0 | 0.00 | 0.00 | 0.00 | 68 | 1014.3 |
| 20260831055301 | 82 | 133 | 2.0 | 7.0 | 0.00 | 0.00 | 0.00 | 68 | 1014.4 |
| 20260831054603 | 82 | 155 | 1.0 | 7.0 | 0.00 | 0.00 | 0.00 | 68 | 1014.1 |
| 20260831054401 | 83 | 140 | 3.0 | 7.0 | 0.00 | 0.00 | 0.00 | 68 | 1014.3 |
| 20260831053005 | 83 | 132 | 2.0 | 7.0 | 0.00 | 0.00 | 0.00 | 68 | 1014.0 |
| 20260831052601 | 83 | 135 | 3.0 | 7.0 | 0.00 | 0.00 | 0.00 | 68 | 1014.2 |
| 20260831051606 | 83 | 117 | 3.0 | 8.0 | 0.00 | 0.00 | 0.00 | 68 | 1014.0 |
| 20260831050801 | 83 | 143 | 3.0 | 7.0 | 0.00 | 0.00 | 0.00 | 68 | 1014.0 |
| 20260831050104 | 83 | 144 | 3.0 | 7.0 | 0.00 | 0.00 | 0.00 | 68 | 1013.8 |
| 20260831045901 | 84 | 135 | 3.0 | 6.0 | 0.00 | 0.00 | 0.00 | 67 | 1014.1 |
| 20260831045001 | 84 | 140 | 3.0 | 7.0 | 0.00 | 0.00 | 0.00 | 67 | 1014.1 |
| 20260831044505 | 83 | 138 | 3.0 | 7.0 | 0.00 | 0.00 | 0.00 | 67 | 1013.9 |
| 20260831044101 | 84 | 143 | 3.0 | 5.0 | 0.00 | 0.00 | 0.00 | 67 | 1014.1 |
| 20260831043201 | 84 | 130 | 3.0 | 7.0 | 0.00 | 0.00 | 0.00 | 66 | 1014.0 |
| 20260831043105 | 83 | 128 | 2.0 | 7.0 | 0.00 | 0.00 | 0.00 | 66 | 1013.8 |
| 20260831042301 | 84 | 129 | 2.0 | 7.0 | 0.00 | 0.00 | 0.00 | 66 | 1014.1 |
| 20260831041522 | 83 | 96 | 2.0 | 5.0 | 0.00 | 0.00 | 0.00 | 65 | 1013.8 |
| 20260831040003 | 83 | 128 | 3.0 | 8.0 | 0.00 | 0.00 | 0.00 | 65 | 1013.6 |
| 20260831035601 | 82 | 123 | 2.0 | 5.0 | 0.00 | 0.00 | 0.00 | 65 | 1013.8 |
| 20260831034701 | 82 | 124 | 1.0 | 5.0 | 0.00 | 0.00 | 0.00 | 66 | 1013.8 |
| 20260831034607 | 81 | 138 | 2.0 | 7.0 | 0.00 | 0.00 | 0.00 | 66 | 1013.5 |
| 20260831033801 | 82 | 120 | 1.0 | 3.0 | 0.00 | 0.00 | 0.00 | 65 | 1013.7 |
| 20260831033105 | 81 | 56 | 0.0 | 2.0 | 0.00 | 0.00 | 0.00 | 65 | 1013.3 |
| 20260831031604 | 81 | 49 | 0.0 | 1.0 | 0.00 | 0.00 | 0.00 | 63 | 1013.2 |
| 20260831031101 | 82 | 0 | 0.0 | 0.0 | 0.00 | 0.00 | 0.00 | 63 | 1013.4 |
| 20260831030201 | 82 | 0 | 0.0 | 0.0 | 0.00 | 0.00 | 0.00 | 61 | 1013.3 |
| 20260831030003 | 82 | 49 | 0.0 | 0.0 | 0.00 | 0.00 | 0.00 | 60 | 1013.1 |
| 20260831025301 | 82 | 0 | 0.0 | 0.0 | 0.00 | 0.00 | 0.00 | 59 | 1013.2 |
| 20260831024510 | 82 | 49 | 0.0 | 0.0 | 0.00 | 0.00 | 0.00 | 58 | 1012.9 |
| 20260831024401 | 83 | 0 | 0.0 | 0.0 | 0.00 | 0.00 | 0.00 | 58 | 1013.1 |
| 20260831023501 | 83 | 0 | 0.0 | 0.0 | 0.00 | 0.00 | 0.00 | 57 | 1013.0 |
| 20260831023004 | 82 | 49 | 0.0 | 0.0 | 0.00 | 0.00 | 0.00 | 56 | 1012.8 |
| 20260831021701 | 83 | 0 | 0.0 | 0.0 | 0.00 | 0.00 | 0.00 | 57 | 1012.8 |
| 20260831021605 | 83 | 49 | 0.0 | 0.0 | 0.00 | 0.00 | 0.00 | 58 | 1012.6 |
| 20260831020801 | 84 | 0 | 0.0 | 0.0 | 0.00 | 0.00 | 0.00 | 56 | 1012.7 |
| 20260831020012 | 83 | 49 | 0.0 | 0.0 | 0.00 | 0.00 | 0.00 | 55 | 1012.3 |
| 20260831015901 | 84 | 0 | 0.0 | 0.0 | 0.00 | 0.00 | 0.00 | 55 | 1012.5 |
| 20260831015001 | 85 | 49 | 0.0 | 1.0 | 0.00 | 0.00 | 0.00 | 55 | 1012.4 |
| 20260831014609 | 85 | 49 | 0.0 | 2.0 | 0.00 | 0.00 | 0.00 | 55 | 1012.1 |
| 20260831014101 | 86 | 50 | 1.0 | 2.0 | 0.00 | 0.00 | 0.00 | 55 | 1012.4 |
| 20260831013201 | 86 | 49 | 1.0 | 3.0 | 0.00 | 0.00 | 0.00 | 52 | 1012.3 |
| 20260831013111 | 86 | 49 | 1.0 | 3.0 | 0.00 | 0.00 | 0.00 | 51 | 1012.1 |
| 20260831012305 | 87 | 50 | 1.0 | 2.0 | 0.00 | 0.00 | 0.00 | 50 | 1012.2 |
| 20260831011507 | 88 | 49 | 1.0 | 2.0 | 0.00 | 0.00 | 0.00 | 48 | 1012.0 |
| 20260831011401 | 88 | 49 | 1.0 | 2.0 | 0.00 | 0.00 | 0.00 | 48 | 1012.2 |
| 20260831010122 | 90 | 49 | 0.0 | 2.0 | 0.00 | 0.00 | 0.00 | 45 | 1011.9 |
| 20260831004701 | 92 | 0 | 0.0 | 0.0 | 0.00 | 0.00 | 0.00 | 42 | 1012.1 |
| 20260831004503 | 92 | 44 | 0.0 | 0.0 | 0.00 | 0.00 | 0.00 | 41 | 1012.0 |
| 20260831003801 | 93 | 45 | 0.0 | 1.0 | 0.00 | 0.00 | 0.00 | 41 | 1012.2 |
| 20260831003003 | 93 | 44 | 0.0 | 1.0 | 0.00 | 0.00 | 0.00 | 40 | 1012.0 |
| 20260831002901 | 94 | 44 | 0.0 | 1.0 | 0.00 | 0.00 | 0.00 | 40 | 1012.2 |
| 20260831002001 | 94 | 154 | 0.0 | 2.0 | 0.00 | 0.00 | 0.00 | 39 | 1012.3 |
| 20260831001509 | 94 | 158 | 0.0 | 3.0 | 0.00 | 0.00 | 0.00 | 38 | 1012.0 |
| 20260831001101 | 95 | 144 | 1.0 | 3.0 | 0.00 | 0.00 | 0.00 | 39 | 1012.2 |
| 20260831000203 | 95 | 141 | 1.0 | 3.0 | 0.00 | 0.00 | 0.00 | 38 | 1012.1 |
| 20260831000116 | 95 | 124 | 1.0 | 3.0 | 0.00 | 0.00 | 0.00 | 37 | 1011.9 |
| 20260830235301 | 96 | 151 | 2.0 | 4.0 | 0.00 | 0.00 | 0.00 | 36 | 1012.1 |
| 20260830234606 | 96 | 153 | 2.0 | 4.0 | 0.00 | 0.00 | 0.00 | 35 | 1012.0 |
| 20260830234401 | 96 | 148 | 2.0 | 7.0 | 0.00 | 0.00 | 0.00 | 35 | 1012.3 |
| 20260830233501 | 97 | 148 | 2.0 | 7.0 | 0.00 | 0.00 | 0.00 | 34 | 1012.2 |
| 20260830233103 | 97 | 136 | 2.0 | 6.0 | 0.00 | 0.00 | 0.00 | 34 | 1012.0 |
| 20260830232601 | 98 | 148 | 4.0 | 7.0 | 0.00 | 0.00 | 0.00 | 33 | 1012.1 |
| 20260830231701 | 99 | 150 | 4.0 | 7.0 | 0.00 | 0.00 | 0.00 | 31 | 1012.2 |
| 20260830231508 | 98 | 155 | 3.0 | 7.0 | 0.00 | 0.00 | 0.00 | 31 | 1012.0 |
| 20260830230801 | 99 | 136 | 3.0 | 6.0 | 0.00 | 0.00 | 0.00 | 30 | 1012.2 |
| 20260830230005 | 99 | 145 | 3.0 | 8.0 | 0.00 | 0.00 | 0.00 | 31 | 1011.9 |
| 20260830225901 | 99 | 106 | 3.0 | 8.0 | 0.00 | 0.00 | 0.00 | 31 | 1012.2 |
| 20260830224504 | 100 | 96 | 2.0 | 8.0 | 0.00 | 0.00 | 0.00 | 32 | 1012.0 |
| 20260830224101 | 100 | 126 | 4.0 | 8.0 | 0.00 | 0.00 | 0.00 | 32 | 1012.2 |
| 20260830223201 | 101 | 127 | 4.0 | 9.0 | 0.00 | 0.00 | 0.00 | 31 | 1012.2 |
| 20260830223003 | 100 | 147 | 4.0 | 9.0 | 0.00 | 0.00 | 0.00 | 30 | 1012.0 |
| 20260830222301 | 101 | 94 | 2.0 | 8.0 | 0.00 | 0.00 | 0.00 | 29 | 1012.2 |
| 20260830221606 | 100 | 101 | 1.0 | 7.0 | 0.00 | 0.00 | 0.00 | 28 | 1011.9 |
| 20260830221401 | 101 | 110 | 2.0 | 7.0 | 0.00 | 0.00 | 0.00 | 30 | 1012.1 |
| 20260830220501 | 101 | 129 | 3.0 | 7.0 | 0.00 | 0.00 | 0.00 | 30 | 1012.2 |
| 20260830220003 | 101 | 123 | 3.0 | 7.0 | 0.00 | 0.00 | 0.00 | 29 | 1012.0 |
| 20260830214606 | 100 | 102 | 1.0 | 9.0 | 0.00 | 0.00 | 0.00 | 25 | 1012.1 |
| 20260830213104 | 101 | 120 | 4.0 | 11.0 | 0.00 | 0.00 | 0.00 | 29 | 1012.3 |
| 20260830212901 | 101 | 156 | 5.0 | 11.0 | 0.00 | 0.00 | 0.00 | 28 | 1012.5 |
| 20260830212001 | 102 | 137 | 4.0 | 8.0 | 0.00 | 0.00 | 0.00 | 29 | 1012.7 |
| 20260830211607 | 102 | 67 | 3.0 | 8.0 | 0.00 | 0.00 | 0.00 | 29 | 1012.6 |
| 20260830210201 | 102 | 159 | 3.0 | 11.0 | 0.00 | 0.00 | 0.00 | 30 | 1012.8 |
| 20260830210004 | 101 | 159 | 2.0 | 6.0 | 0.00 | 0.00 | 0.00 | 28 | 1012.5 |
| 20260830205301 | 101 | 136 | 5.0 | 9.0 | 0.00 | 0.00 | 0.00 | 25 | 1013.0 |
| 20260830204605 | 101 | 146 | 4.0 | 9.0 | 0.00 | 0.00 | 0.00 | 28 | 1012.9 |
| 20260830204401 | 102 | 168 | 5.0 | 8.0 | 0.00 | 0.00 | 0.00 | 29 | 1013.1 |
| 20260830203501 | 102 | 179 | 4.0 | 9.0 | 0.00 | 0.00 | 0.00 | 32 | 1013.3 |
| 20260830203003 | 101 | 192 | 3.0 | 8.0 | 0.00 | 0.00 | 0.00 | 37 | 1013.1 |
| 20260830202601 | 101 | 171 | 4.0 | 7.0 | 0.00 | 0.00 | 0.00 | 36 | 1013.4 |
| 20260830201605 | 101 | 153 | 4.0 | 8.0 | 0.00 | 0.00 | 0.00 | 38 | 1013.1 |
| 20260830200801 | 100 | 194 | 3.0 | 9.0 | 0.00 | 0.00 | 0.00 | 40 | 1013.6 |
| 20260830200006 | 100 | 225 | 4.0 | 12.0 | 0.00 | 0.00 | 0.00 | 39 | 1013.5 |
| 20260830195901 | 101 | 170 | 5.0 | 12.0 | 0.00 | 0.00 | 0.00 | 40 | 1013.7 |
| 20260830194609 | 99 | 179 | 1.0 | 7.0 | 0.00 | 0.00 | 0.00 | 43 | 1013.5 |
| 20260830194101 | 99 | 153 | 2.0 | 7.0 | 0.00 | 0.00 | 0.00 | 42 | 1013.8 |
| 20260830193201 | 100 | 187 | 3.0 | 7.0 | 0.00 | 0.00 | 0.00 | 42 | 1014.0 |
| 20260830193004 | 99 | 186 | 3.0 | 7.0 | 0.00 | 0.00 | 0.00 | 43 | 1013.7 |
| 20260830192301 | 99 | 196 | 3.0 | 10.0 | 0.00 | 0.00 | 0.00 | 43 | 1014.1 |
| 20260830191505 | 99 | 247 | 4.0 | 10.0 | 0.00 | 0.00 | 0.00 | 45 | 1013.8 |
| 20260830191401 | 99 | 165 | 3.0 | 10.0 | 0.00 | 0.00 | 0.00 | 45 | 1014.2 |
| 20260830190501 | 98 | 175 | 2.0 | 8.0 | 0.00 | 0.00 | 0.00 | 44 | 1014.2 |
| 20260830190106 | 98 | 101 | 2.0 | 8.0 | 0.00 | 0.00 | 0.00 | 45 | 1014.0 |
| 20260830185601 | 98 | 212 | 3.0 | 7.0 | 0.00 | 0.00 | 0.00 | 45 | 1014.3 |
| 20260830184701 | 99 | 166 | 4.0 | 7.0 | 0.00 | 0.00 | 0.00 | 45 | 1014.5 |
| 20260830184618 | 98 | 164 | 3.0 | 8.0 | 0.00 | 0.00 | 0.00 | 44 | 1014.2 |
| 20260830183801 | 98 | 166 | 5.0 | 9.0 | 0.00 | 0.00 | 0.00 | 44 | 1014.6 |
| 20260830183004 | 97 | 199 | 3.0 | 10.0 | 0.00 | 0.00 | 0.00 | 48 | 1014.4 |
| 20260830182901 | 98 | 162 | 4.0 | 10.0 | 0.00 | 0.00 | 0.00 | 49 | 1014.6 |
| 20260830182001 | 98 | 171 | 4.0 | 10.0 | 0.00 | 0.00 | 0.00 | 46 | 1014.7 |
| 20260830181505 | 97 | 159 | 5.0 | 10.0 | 0.00 | 0.00 | 0.00 | 48 | 1014.5 |
| 20260830181101 | 97 | 157 | 3.0 | 8.0 | 0.00 | 0.00 | 0.00 | 47 | 1014.8 |
| 20260830180201 | 97 | 173 | 4.0 | 9.0 | 0.00 | 0.00 | 0.00 | 49 | 1014.8 |
| 20260830180104 | 97 | 174 | 3.0 | 9.0 | 0.00 | 0.00 | 0.00 | 49 | 1014.5 |
| 20260830175301 | 97 | 165 | 4.0 | 10.0 | 0.00 | 0.00 | 0.00 | 46 | 1014.9 |
| 20260830174538 | 96 | 162 | 6.0 | 10.0 | 0.00 | 0.00 | 0.00 | 50 | 1014.7 |
| 20260830174401 | 96 | 184 | 2.0 | 8.0 | 0.00 | 0.00 | 0.00 | 53 | 1015.0 |
| 20260830173501 | 96 | 184 | 3.0 | 8.0 | 0.00 | 0.00 | 0.00 | 51 | 1015.1 |
| 20260830173107 | 95 | 173 | 4.0 | 8.0 | 0.00 | 0.00 | 0.00 | 52 | 1015.0 |
| 20260830172601 | 95 | 183 | 3.0 | 7.0 | 0.00 | 0.00 | 0.00 | 52 | 1015.2 |
| 20260830171701 | 95 | 170 | 5.0 | 9.0 | 0.00 | 0.00 | 0.00 | 53 | 1015.4 |
| 20260830171510 | 94 | 153 | 5.0 | 9.0 | 0.00 | 0.00 | 0.00 | 53 | 1015.2 |
| 20260830170106 | 94 | 132 | 2.0 | 8.0 | 0.00 | 0.00 | 0.00 | 55 | 1015.4 |
| 20260830165901 | 94 | 170 | 4.0 | 8.0 | 0.00 | 0.00 | 0.00 | 55 | 1015.7 |
| 20260830165001 | 94 | 166 | 4.0 | 9.0 | 0.00 | 0.00 | 0.00 | 56 | 1015.8 |
| 20260830164508 | 93 | 90 | 3.0 | 7.0 | 0.00 | 0.00 | 0.00 | 56 | 1015.4 |
| 20260830164101 | 93 | 165 | 4.0 | 7.0 | 0.00 | 0.00 | 0.00 | 58 | 1015.7 |
| 20260830163201 | 93 | 163 | 4.0 | 8.0 | 0.00 | 0.00 | 0.00 | 58 | 1015.8 |
| 20260830163003 | 92 | 163 | 5.0 | 8.0 | 0.00 | 0.00 | 0.00 | 60 | 1015.5 |
| 20260830162301 | 92 | 173 | 4.0 | 8.0 | 0.00 | 0.00 | 0.00 | 60 | 1015.8 |
| 20260830161605 | 91 | 189 | 6.0 | 8.0 | 0.00 | 0.00 | 0.00 | 60 | 1015.5 |
| 20260830161401 | 92 | 171 | 3.0 | 8.0 | 0.00 | 0.00 | 0.00 | 60 | 1015.8 |
| 20260830160501 | 90 | 176 | 3.0 | 7.0 | 0.00 | 0.00 | 0.00 | 63 | 1015.8 |
| 20260830160009 | 90 | 175 | 1.0 | 7.0 | 0.00 | 0.00 | 0.00 | 62 | 1015.6 |
| 20260830155601 | 90 | 173 | 4.0 | 7.0 | 0.00 | 0.00 | 0.00 | 62 | 1016.0 |
| 20260830154701 | 89 | 181 | 2.0 | 7.0 | 0.00 | 0.00 | 0.00 | 64 | 1016.0 |
| 20260830154604 | 88 | 184 | 1.0 | 7.0 | 0.00 | 0.00 | 0.00 | 64 | 1015.7 |
| 20260830153009 | 88 | 180 | 3.0 | 6.0 | 0.00 | 0.00 | 0.00 | 64 | 1015.9 |
| 20260830152901 | 88 | 188 | 3.0 | 6.0 | 0.00 | 0.00 | 0.00 | 64 | 1016.1 |
| 20260830152001 | 88 | 189 | 2.0 | 6.0 | 0.00 | 0.00 | 0.00 | 65 | 1016.2 |
| 20260830151612 | 87 | 162 | 1.0 | 5.0 | 0.00 | 0.00 | 0.00 | 65 | 1016.0 |
| 20260830150201 | 86 | 146 | 2.0 | 5.0 | 0.00 | 0.00 | 0.00 | 68 | 1016.3 |
| 20260830150106 | 86 | 207 | 0.0 | 5.0 | 0.00 | 0.00 | 0.00 | 67 | 1016.1 |
| 20260830145301 | 86 | 158 | 3.0 | 6.0 | 0.00 | 0.00 | 0.00 | 68 | 1016.4 |
| 20260830144604 | 85 | 212 | 2.0 | 8.0 | 0.00 | 0.00 | 0.00 | 67 | 1016.2 |
| 20260830144401 | 85 | 168 | 4.0 | 8.0 | 0.00 | 0.00 | 0.00 | 68 | 1016.5 |
| 20260830143501 | 85 | 178 | 4.0 | 7.0 | 0.00 | 0.00 | 0.00 | 68 | 1016.5 |
| 20260830143014 | 84 | 154 | 3.0 | 6.0 | 0.00 | 0.00 | 0.00 | 68 | 1016.2 |
| 20260830142601 | 84 | 174 | 3.0 | 6.0 | 0.00 | 0.00 | 0.00 | 69 | 1016.4 |
| 20260830141701 | 83 | 160 | 2.0 | 4.0 | 0.00 | 0.00 | 0.00 | 70 | 1016.5 |
| 20260830141503 | 82 | 159 | 1.0 | 5.0 | 0.00 | 0.00 | 0.00 | 70 | 1016.3 |
| 20260830140801 | 81 | 132 | 1.0 | 4.0 | 0.00 | 0.00 | 0.00 | 71 | 1016.4 |
| 20260830140104 | 80 | 76 | 1.0 | 5.0 | 0.00 | 0.00 | 0.00 | 71 | 1016.3 |
| 20260830135001 | 79 | 109 | 1.0 | 3.0 | 0.00 | 0.00 | 0.00 | 73 | 1016.4 |
| 20260830134605 | 78 | 76 | 1.0 | 3.0 | 0.00 | 0.00 | 0.00 | 74 | 1016.2 |
| 20260830134101 | 78 | 85 | 1.0 | 3.0 | 0.00 | 0.00 | 0.00 | 74 | 1016.6 |
| 20260830133201 | 76 | 71 | 0.0 | 2.0 | 0.00 | 0.00 | 0.00 | 76 | 1016.5 |
| 20260830133108 | 76 | 22 | 0.0 | 2.0 | 0.00 | 0.00 | 0.00 | 76 | 1016.3 |
| 20260830132301 | 75 | 47 | 1.0 | 3.0 | 0.00 | 0.00 | 0.00 | 78 | 1016.5 |
| 20260830131603 | 74 | 46 | 0.0 | 3.0 | 0.00 | 0.00 | 0.00 | 79 | 1016.3 |
| 20260830131401 | 74 | 62 | 0.0 | 2.0 | 0.00 | 0.00 | 0.00 | 80 | 1016.5 |
| 20260830130501 | 73 | 39 | 0.0 | 3.0 | 0.00 | 0.00 | 0.00 | 81 | 1016.3 |
| 20260830130115 | 72 | 71 | 0.0 | 3.0 | 0.00 | 0.00 | 0.00 | 81 | 1016.1 |
| 20260830125601 | 72 | 26 | 1.0 | 3.0 | 0.00 | 0.00 | 0.00 | 81 | 1016.3 |
| 20260830124701 | 72 | 27 | 1.0 | 3.0 | 0.00 | 0.00 | 0.00 | 82 | 1016.2 |
| 20260830124603 | 71 | 54 | 1.0 | 4.0 | 0.00 | 0.00 | 0.00 | 82 | 1016.1 |
| 20260830123801 | 71 | 9 | 1.0 | 3.0 | 0.00 | 0.00 | 0.00 | 83 | 1016.2 |
| 20260830123007 | 70 | 22 | 0.0 | 4.0 | 0.00 | 0.00 | 0.00 | 83 | 1016.0 |
| 20260830122901 | 71 | 4 | 1.0 | 4.0 | 0.00 | 0.00 | 0.00 | 83 | 1016.2 |
| 20260830122001 | 71 | 20 | 1.0 | 3.0 | 0.00 | 0.00 | 0.00 | 83 | 1016.1 |
| 20260830121503 | 70 | 5 | 1.0 | 3.0 | 0.00 | 0.00 | 0.00 | 83 | 1015.8 |
| 20260830121101 | 71 | 25 | 1.0 | 3.0 | 0.00 | 0.00 | 0.00 | 83 | 1016.0 |
| 20260830120200 | 71 | 10 | 1.0 | 3.0 | 0.00 | 0.00 | 0.00 | 83 | 1015.9 |
| 20260830120005 | 70 | 16 | 0.0 | 3.0 | 0.00 | 0.00 | 0.00 | 83 | 1015.6 |
| 20260830114604 | 70 | 5 | 1.0 | 3.0 | 0.00 | 0.00 | 0.00 | 84 | 1015.5 |
| 20260830114401 | 71 | 6 | 1.0 | 3.0 | 0.00 | 0.00 | 0.00 | 84 | 1015.7 |
| 20260830113501 | 71 | 7 | 1.0 | 3.0 | 0.00 | 0.00 | 0.00 | 84 | 1015.6 |
| 20260830113103 | 70 | 5 | 1.0 | 3.0 | 0.00 | 0.00 | 0.00 | 84 | 1015.3 |
| 20260830112601 | 71 | 17 | 0.0 | 2.0 | 0.00 | 0.00 | 0.00 | 84 | 1015.4 |
| 20260830111700 | 71 | 12 | 1.0 | 2.0 | 0.00 | 0.00 | 0.00 | 84 | 1015.4 |
| 20260830111606 | 70 | 41 | 0.0 | 3.0 | 0.00 | 0.00 | 0.00 | 84 | 1015.2 |
| 20260830110801 | 71 | 0 | 0.0 | 0.0 | 0.00 | 0.00 | 0.00 | 84 | 1015.5 |
| 20260830110002 | 71 | 5 | 0.0 | 0.0 | 0.00 | 0.00 | 0.00 | 83 | 1015.2 |
| 20260830105900 | 71 | 0 | 0.0 | 0.0 | 0.00 | 0.00 | 0.00 | 83 | 1015.4 |
| 20260830105001 | 71 | 0 | 0.0 | 0.0 | 0.00 | 0.00 | 0.00 | 84 | 1015.3 |
| 20260830104604 | 71 | 5 | 0.0 | 0.0 | 0.00 | 0.00 | 0.00 | 84 | 1015.0 |
| 20260830104100 | 71 | 0 | 0.0 | 0.0 | 0.00 | 0.00 | 0.00 | 84 | 1015.2 |
| 20260830103201 | 71 | 0 | 0.0 | 0.0 | 0.00 | 0.00 | 0.00 | 84 | 1015.1 |
| 20260830103105 | 71 | 28 | 0.0 | 0.0 | 0.00 | 0.00 | 0.00 | 84 | 1014.8 |
| 20260830102300 | 71 | 0 | 0.0 | 0.0 | 0.00 | 0.00 | 0.00 | 83 | 1015.0 |
| 20260830101503 | 71 | 31 | 0.0 | 1.0 | 0.00 | 0.00 | 0.00 | 83 | 1014.8 |
| 20260830101401 | 71 | 30 | 0.0 | 1.0 | 0.00 | 0.00 | 0.00 | 83 | 1015.0 |
| 20260830100500 | 71 | 48 | 0.0 | 2.0 | 0.00 | 0.00 | 0.00 | 83 | 1015.0 |
| 20260830100110 | 71 | 43 | 0.0 | 1.0 | 0.00 | 0.00 | 0.00 | 83 | 1014.9 |
| 20260830095600 | 71 | 33 | 1.0 | 2.0 | 0.00 | 0.00 | 0.00 | 82 | 1015.1 |
| 20260830094701 | 71 | 46 | 1.0 | 2.0 | 0.00 | 0.00 | 0.00 | 82 | 1015.0 |
| 20260830094603 | 71 | 65 | 0.0 | 2.0 | 0.00 | 0.00 | 0.00 | 82 | 1014.8 |
| 20260830093800 | 71 | 10 | 0.0 | 3.0 | 0.00 | 0.00 | 0.00 | 81 | 1015.0 |
| 20260830093008 | 71 | 5 | 0.0 | 1.0 | 0.00 | 0.00 | 0.00 | 80 | 1014.9 |
| 20260830092900 | 72 | 19 | 0.0 | 2.0 | 0.00 | 0.00 | 0.00 | 80 | 1015.1 |